Location: North Mitre
(40.7833°S, 175.4667°E)
Time: 18:54:59
(UTC+00:00)

CORIOLIS - Pass Details

Date: 04 August 2024
Orbit: 817 x 836 km, 98.7° (Epoch: 18 September)

Event Time Altitude Azimuth Distance (km) Brightness Sun altitude
Rises 18:14:25 0° 359° (N) 3,377 7.5 -12.8°
Reaches altitude 10° 18:16:51 10° 353° (N) 2,451 6.7 -12.3°
Maximum altitude 18:22:04 47° 279° (W) 1,116 4.5 -11.4°
Drops below altitude 10° 18:27:21 10° 206° (SSW) 2,477 6.3 -10.4°
Sets 18:29:50 0° 199° (SSW) 3,416 7.0 -9.9°
